Flag Weather past 2 weeks in Sandpoint, Idaho, U.S.A.

Now
50 °F

Overcast.


Feels Like: 47 °F
Forecast: 39 / 44 °F
Wind: 7 mph from Southwest

Location: Sandpoint Airport

Current Time: Nov 27, 2014 at 8:16:11 PM

Latest Report: Nov 27, 2014 at 7:15 PM


Visibility: 10 mi

Pressure: 29.72 "Hg

Humidity: 76%

Dew point: 43 °F

Location of SandpointLocation

Historic Weather in Sandpoint — Graph

°F

Sandpoint temperature yesterday

Maximum temperature yesterday: 36 °F (at 8:35 PM)
Minimum temperature yesterday: 32 °F (at 12:15 AM)
Average temperature yesterday: 33 °F

Past Weeks' High & Low Weather Summary

 TemperatureHumidityPressure
High48 °F (Nov 27, 11:55 AM)100% (Nov 16, 12:55 AM)30.63 "Hg (Nov 16, 12:55 AM)
Low9 °F (Nov 15, 6:15 AM)27% (Nov 13, 2:35 PM)29.37 "Hg (Nov 22, 1:15 AM)
Average28 °F83%30.15 "Hg
* Reported Nov 12 6:15 PM — Nov 27 6:15 PM, Sandpoint, Weather by CustomWeather, © 2014

Note: Actual official high and low records may vary slightly from our data, if they occured in-between our weather recording intervals... More about our weather records

Advertising

Sandpoint weather history for previous 24 hours

 ConditionsComfort  
Time TempWeatherWind HumidityBarometerVisibility
6:15 PM
Nov 27
48 °FOvercast.6 mph82%29.73 "Hg10 mi
5:55 PM48 °FOvercast.3 mph82%29.74 "Hg10 mi
5:35 PM48 °FOvercast.5 mph82%29.74 "Hg10 mi
5:15 PM48 °FOvercast.3 mph82%29.75 "Hg10 mi
4:55 PM48 °FOvercast.6 mph82%29.75 "Hg10 mi
4:35 PM48 °FOvercast.3 mph82%29.76 "Hg10 mi
4:15 PM48 °FOvercast.5 mph87%29.76 "Hg10 mi
3:55 PM46 °FOvercast.7 mph100%29.76 "Hg10 mi
3:15 PM46 °FOvercast.No wind100%29.76 "Hg10 mi
2:55 PM48 °FOvercast.5 mph87%29.76 "Hg10 mi
2:35 PM46 °FOvercast.7 mph100%29.77 "Hg10 mi
2:15 PM46 °FOvercast.No wind100%29.78 "Hg10 mi
1:55 PM48 °FLight rain. Overcast.3 mph87%29.79 "Hg10 mi
1:35 PM48 °FOvercast.5 mph94%29.80 "Hg10 mi
1:15 PM48 °FOvercast.5 mph94%29.81 "Hg10 mi
12:55 PM48 °FMostly cloudy.3 mph94%29.82 "Hg10 mi
12:35 PM48 °FOvercast.3 mph100%29.83 "Hg10 mi
12:15 PM48 °FOvercast.5 mph94%29.83 "Hg10 mi
11:55 AM48 °FOvercast.5 mph100%29.84 "Hg10 mi
11:35 AM46 °FOvercast.5 mph100%29.84 "Hg10 mi
11:15 AM46 °FRain. Overcast.5 mph100%29.86 "Hg10 mi
10:55 AM43 °FDrizzle. Overcast.No wind100%29.87 "Hg7 mi
10:35 AM43 °FOvercast.No wind100%29.87 "Hg10 mi
10:15 AM41 °FFog.No wind100%29.88 "Hg5 mi
9:55 AM41 °FOvercast.No wind100%29.88 "Hg7 mi
9:15 AM41 °FFog.No wind100%29.88 "Hg5 mi
8:55 AM37 °FLight rain. Overcast.No wind100%29.88 "Hg5 mi
8:15 AM37 °FFog.No wind100%29.87 "Hg5 mi
7:55 AM37 °FFog.No wind100%29.87 "Hg4 mi
7:35 AM37 °FFog.No wind100%29.87 "Hg5 mi
7:15 AM36 °FFog.No wind100%29.87 "Hg5 mi
6:55 AM36 °FFog.No wind100%29.87 "Hg5 mi
6:35 AM36 °FFog.No wind100%29.87 "Hg4 mi
6:15 AM36 °FFog.No wind100%29.87 "Hg5 mi
5:55 AM36 °FFog.No wind100%29.87 "Hg3 mi
5:35 AM36 °FFog.No wind100%29.88 "Hg3 mi
5:15 AM36 °FFog.No wind100%29.88 "Hg3 mi
4:55 AM36 °FFog.No wind100%29.88 "Hg4 mi
4:35 AM36 °FFog.No wind100%29.88 "Hg3 mi
4:15 AM36 °FLight rain. Overcast.No wind100%29.88 "Hg3 mi
3:55 AM36 °FRain. Overcast.No wind100%29.89 "Hg3 mi
3:35 AM36 °FRain. Overcast.No wind100%29.90 "Hg4 mi
3:15 AM36 °FFog.No wind100%29.90 "Hg4 mi
2:55 AM36 °FFog.No wind100%29.90 "Hg3 mi
2:35 AM36 °FFog.No wind100%29.91 "Hg3 mi
2:15 AM36 °FFog.No wind100%29.92 "Hg5 mi
1:55 AM36 °FFog.No wind100%29.92 "Hg5 mi
1:35 AM36 °FLight rain. Overcast.No wind100%29.93 "Hg7 mi
1:15 AM36 °FFog.3 mph100%29.94 "Hg5 mi
12:15 AM36 °FRain. Mostly cloudy.No wind100%29.95 "Hg3 mi
11:55 PM
Nov 26
36 °FFog.No wind100%29.96 "Hg3 mi
11:15 PM36 °FLight rain. Overcast.No wind100%29.97 "Hg5 mi
10:55 PM36 °FLight rain. Overcast.No wind100%29.97 "Hg3 mi
10:35 PM36 °FLight rain. Mostly cloudy.No wind100%29.99 "Hg4 mi
10:15 PM36 °FFog.No wind100%30.00 "Hg3 mi
9:55 PM36 °FRain. Overcast.No wind100%30.00 "Hg2 mi
9:35 PM34 °FLight rain. Overcast.No wind100%30.01 "Hg2 mi
9:15 PM34 °FRain. Mostly cloudy.No wind100%30.02 "Hg2 mi
8:55 PM34 °FFog.No wind100%30.02 "Hg2 mi
8:35 PM36 °FDrizzle. Mostly cloudy.No wind100%30.03 "Hg2 mi
8:15 PM34 °FFog.No wind100%30.04 "Hg2 mi
Weather by CustomWeather, © 2014

See weather overviewHow to use our weather pages